{"data":{"norad_id":59635,"epoch":"2026-05-25T03:55:33.716352Z","epoch_age_seconds":74973,"freshness":"FRESH","line1":"1 59635U 24082E   26145.16358468  .00000257  00000+0  18872-4 0  9996","line2":"2 59635  43.0043  68.2686 0001047 271.3647  88.7085 15.27582691116507","mean_motion":15.27582691,"eccentricity":0.0001047,"inclination_deg":43.0043,"raan_deg":68.2686,"arg_perigee_deg":271.3647,"mean_anomaly_deg":88.7085,"bstar":1.8872e-5,"rev_number":11650,"period_min":94.26658265271,"perigee_km":482.3226728888,"apogee_km":483.75940357,"semimajor_km":6861.1780382294,"source":"CELESTRAK","updated_at":"2026-05-25T13:38:19.013401Z"}}